Theta_e
319 318 318 319 319 319 320 320 320 320 321 321 322 322 322 322 322 322 322 322 321 321 321 321 321 322 322 321 321 321 319 314 314 315 312 315 324 337 348 349 349 345 347 337 328 321 314 315 316 318 320 319 319 325 324 327 321 320 316 305 307 306 308 313 311 311 314 313 315 321 324 324 322 326 329 333 330 330 329 329 334 337 338 341 344 347 348 350
318 318 318 318 318 319 319 320 320 320 321 321 321 321 322 322 322 322 322 321 321 320 320 320 320 323 322 321 322 321 317 314 313 314 315 327 344 343 348 351 352 353 347 324 321 317 313 313 316 316 318 317 322 320 327 321 325 313 309 308 307 307 312 315 316 316 316 315 319 322 325 325 323 328 329 325 325 326 325 329 332 333 337 343 345 346 347 349
318 318 317 318 318 318 319 319 319 320 320 320 320 321 321 321 321 321 321 321 321 320 320 320 321 322 322 322 322 321 316 314 314 307 312 341 346 346 347 348 347 359 328 320 321 317 312 314 315 315 313 312 314 316 322 319 323 316 312 308 308 312 314 317 319 318 320 319 319 321 323 324 327 329 331 325 324 325 323 325 329 331 334 339 343 345 346 347
317 317 317 317 317 318 318 319 319 319 319 319 320 320 320 320 321 321 321 320 320 320 320 319 321 323 322 322 322 319 315 315 300 304 310 357 355 353 348 346 349 355 327 321 319 317 317 316 315 315 314 312 310 319 315 317 316 314 313 309 313 313 314 317 320 320 321 322 320 321 321 324 328 329 329 326 322 322 325 330 330 331 335 339 342 344 345 346
317 317 317 317 317 317 318 318 319 319 319 319 319 319 320 320 320 320 320 320 320 320 319 319 321 322 322 321 320 316 315 295 298 307 313 352 350 353 352 347 352 343 327 320 319 320 318 315 314 315 314 309 311 314 312 316 318 313 315 317 317 314 315 318 320 322 321 323 321 320 320 323 329 329 327 325 320 319 325 331 334 336 338 340 342 344 345 344
316 316 316 316 317 317 318 318 319 319 318 318 318 319 319 319 319 319 319 319 320 319 319 320 321 322 323 322 318 316 300 292 305 311 362 355 350 354 353 349 355 336 327 322 316 317 315 315 313 312 309 309 308 307 308 313 316 308 310 312 316 318 318 319 322 321 322 320 320 319 322 326 325 324 327 326 323 325 332 335 337 338 340 343 345 344 343 344
316 316 315 316 317 317 317 317 317 318 317 318 318 318 318 319 318 318 318 318 319 319 320 320 321 322 323 321 312 315 303 301 309 311 341 356 356 356 353 353 360 327 322 317 316 313 313 312 313 310 310 313 309 308 310 312 312 310 308 313 315 320 319 321 322 322 322 322 321 323 326 324 323 320 326 324 328 330 334 337 338 339 341 343 342 343 343 343
315 315 315 316 316 316 317 317 317 317 317 317 318 318 318 318 318 318 318 318 319 319 320 320 322 323 323 316 314 301 303 302 311 314 334 360 353 353 350 339 330 322 318 314 313 310 313 311 311 313 310 309 309 310 311 310 310 308 310 315 317 320 320 322 323 323 323 323 324 326 324 323 325 324 326 325 329 333 336 338 339 340 341 341 341 341 342 343
315 315 315 316 316 316 317 317 317 317 317 317 317 317 317 317 317 317 318 318 319 319 320 321 322 323 323 317 306 299 300 307 311 316 350 339 340 335 330 326 322 319 315 314 313 313 312 310 312 313 309 309 310 311 310 308 303 312 315 317 318 318 321 322 323 324 325 326 327 325 323 325 326 330 326 328 330 335 339 339 339 340 339 339 340 341 341 342
315 315 315 315 316 316 316 317 317 317 317 317 317 317 316 317 316 317 318 318 318 319 320 321 323 323 318 316 299 296 305 309 321 334 334 337 331 325 322 322 321 317 314 314 316 315 311 311 314 315 314 312 313 310 308 307 304 314 317 318 317 319 321 323 323 324 326 326 328 325 324 325 329 328 319 329 332 337 338 337 339 339 338 339 340 340 341 342
314 314 315 315 316 316 316 316 317 316 316 316 316 316 316 316 316 316 317 318 318 319 320 322 323 320 317 318 302 298 308 327 327 326 330 329 324 321 319 320 320 316 315 312 315 317 316 315 317 317 315 310 312 308 308 308 311 317 317 318 319 321 323 323 324 324 327 325 328 327 323 326 328 326 323 328 333 337 336 336 337 338 338 338 339 339 340 341
314 314 315 315 315 315 315 316 316 316 316 316 316 316 316 316 315 316 317 318 319 320 321 323 325 317 316 313 301 304 312 322 317 315 324 323 321 320 317 317 319 318 315 312 312 316 317 317 316 315 308 314 307 310 307 311 312 316 320 315 316 320 319 323 322 324 327 323 328 328 324 321 323 321 326 330 333 335 335 335 336 336 337 338 338 339 339 340
314 314 314 314 315 315 315 316 315 316 316 315 315 315 315 315 315 316 317 318 319 320 322 324 324 320 315 304 309 315 315 316 316 316 314 319 319 317 317 316 317 316 316 313 311 312 316 315 315 313 313 313 310 305 311 312 311 319 318 316 315 316 315 320 324 324 325 325 329 327 310 312 319 324 328 331 332 333 332 332 333 334 336 337 338 338 338 339
314 314 314 314 315 315 315 315 315 315 315 315 314 314 314 314 315 316 318 319 321 321 323 326 322 319 313 303 311 316 318 317 317 317 316 316 315 314 316 314 315 316 316 313 312 312 315 313 314 313 315 311 306 311 308 309 316 313 315 318 312 310 310 319 322 323 322 326 327 323 311 310 319 325 329 331 332 330 328 330 329 331 333 334 335 336 336 337
314 314 314 314 314 314 314 315 314 314 314 314 314 313 313 313 315 318 320 321 320 323 324 326 320 318 313 312 320 325 345 339 320 320 318 314 312 312 312 312 313 313 315 314 315 316 314 314 314 310 306 311 311 309 304 302 306 311 311 302 309 311 309 316 318 323 319 323 325 321 311 313 320 324 328 330 330 330 327 328 328 328 330 331 332 333 334 334
313 313 314 314 314 314 314 314 313 314 314 313 312 312 314 314 317 320 321 321 324 324 324 319 318 319 311 305 315 332 331 322 320 326 322 317 313 312 313 310 312 312 313 312 316 317 315 315 310 304 307 308 307 303 299 299 304 308 308 302 305 307 310 312 316 320 324 323 322 317 310 316 319 326 328 330 329 328 327 326 327 327 328 330 330 331 332 333
313 313 313 313 314 314 314 313 313 313 313 312 312 312 314 316 320 321 324 323 323 323 321 317 321 322 304 312 323 315 316 320 323 319 321 318 316 315 311 310 309 309 310 311 312 313 311 310 308 310 309 302 299 301 300 295 297 305 304 304 306 308 308 306 315 317 320 322 316 319 317 319 321 326 328 329 329 327 325 325 326 327 328 329 329 330 331 332
313 313 313 313 314 314 313 313 313 313 312 311 310 310 310 316 319 322 320 324 323 322 321 323 320 309 305 314 307 310 320 318 318 319 317 318 318 314 310 308 309 307 308 309 311 307 308 304 306 299 301 304 303 300 297 294 298 301 300 301 302 307 310 309 310 314 318 320 316 316 318 318 321 325 327 328 329 327 325 325 326 327 328 328 329 329 330 331
313 313 313 313 313 313 313 312 312 312 311 311 311 313 315 318 317 317 319 318 315 305 303 311 309 301 298 307 313 315 315 318 320 319 316 316 317 314 313 309 307 305 303 303 302 306 305 303 303 302 297 300 300 303 301 303 301 303 304 305 305 304 306 308 313 317 319 315 313 315 315 316 321 323 326 327 328 326 326 326 327 328 328 328 328 329 330 331
312 313 313 313 313 313 313 312 312 311 310 307 306 308 313 304 303 300 317 319 313 306 306 308 313 312 313 313 314 318 321 320 314 316 318 316 315 311 309 309 308 305 301 300 301 303 304 298 295 297 297 301 303 305 306 306 304 305 307 304 305 307 308 311 313 317 320 315 314 315 316 317 321 323 325 327 327 326 326 325 326 328 328 328 328 329 330 331
313 312 313 313 312 313 312 312 311 310 310 306 304 305 300 300 298 295 303 306 308 311 312 312 313 312 311 315 317 315 312 314 316 316 319 322 316 311 306 305 302 299 298 300 302 304 305 297 298 299 301 303 304 305 305 306 303 304 304 303 302 307 305 310 312 317 319 315 311 315 315 316 320 323 324 326 326 324 325 324 326 327 328 329 328 329 330 332
312 313 313 313 312 312 312 311 311 310 309 302 307 301 303 307 309 309 305 300 306 310 310 312 313 312 317 317 319 319 317 311 314 316 321 318 311 309 304 304 299 297 299 300 302 300 297 298 300 302 303 305 305 306 305 305 304 303 302 302 302 302 306 309 313 317 318 315 310 313 313 314 319 322 324 324 325 326 327 326 327 328 328 328 329 329 330 332
313 312 312 312 312 311 311 311 309 309 305 302 299 299 300 306 309 310 307 302 301 308 308 308 307 309 311 316 318 320 312 310 309 314 313 313 308 309 304 302 298 298 299 299 297 296 295 297 301 303 304 304 304 304 304 305 305 301 299 301 299 302 304 300 307 315 316 313 310 313 313 314 318 320 322 324 325 325 327 327 328 330 329 329 329 330 330 332
312 312 312 311 311 311 311 309 308 307 302 302 301 302 306 307 310 310 307 300 300 305 308 310 310 309 310 310 316 317 312 312 312 312 318 310 306 307 305 303 299 298 298 298 298 297 295 301 303 303 304 304 304 303 303 301 300 300 302 300 300 303 305 305 305 312 313 314 316 313 309 309 313 314 316 321 324 324 325 326 326 329 331 331 332 331 332 332
312 312 312 312 310 311 308 308 303 303 304 302 303 307 308 309 310 308 304 300 299 302 310 310 312 312 313 319 318 313 313 314 315 317 314 312 307 305 304 306 301 298 297 297 297 296 297 302 305 303 303 304 303 302 302 302 299 298 299 302 302 304 306 306 309 310 306 306 313 314 299 302 308 313 316 318 319 320 322 321 323 325 328 329 329 330 331 334
312 312 312 311 311 310 308 300 302 302 302 298 300 307 309 308 309 306 303 295 292 300 308 302 314 307 319 311 315 313 312 306 314 317 314 312 315 308 306 302 303 299 298 297 297 296 298 302 304 303 303 303 302 302 302 304 298 299 299 302 304 303 305 307 308 308 301 301 309 315 304 295 302 309 314 316 317 317 319 319 321 323 326 327 328 329 330 332
312 312 312 311 311 308 301 297 304 304 296 298 308 310 308 307 308 305 300 291 289 302 301 309 308 308 316 311 313 312 298 300 314 314 314 318 311 312 304 299 302 303 302 300 300 295 300 301 300 302 303 302 301 301 302 304 299 297 299 301 303 302 302 306 308 308 304 310 311 311 304 299 298 309 314 315 315 315 316 318 320 322 324 326 328 330 331 332
312 312 311 311 309 309 303 304 302 300 300 302 310 309 307 307 306 307 298 285 285 303 307 305 309 315 314 311 314 307 304 308 305 309 314 314 312 308 306 300 299 299 301 300 293 298 302 299 299 299 299 300 300 303 303 305 301 299 302 303 302 303 303 305 307 306 304 307 300 308 309 301 299 305 312 313 311 312 314 316 318 321 323 325 327 329 331 333
311 311 311 311 310 308 308 303 303 301 307 309 308 307 308 308 304 300 289 283 298 304 312 305 313 311 309 310 308 308 308 309 304 307 311 312 312 305 303 300 301 299 299 301 295 294 302 302 301 301 299 297 302 304 304 305 302 304 305 304 303 304 303 305 304 304 304 302 297 304 306 300 294 301 306 309 311 311 313 316 318 320 323 325 326 329 331 333
311 311 311 310 308 305 303 304 302 306 307 308 307 307 308 303 303 295 289 283 304 295 306 306 305 303 306 304 305 307 306 307 309 309 309 307 308 310 308 305 301 299 299 301 298 299 300 309 308 303 300 302 303 304 304 305 306 305 304 303 301 301 301 304 301 300 301 295 298 306 308 305 295 301 307 306 309 314 316 316 318 320 322 325 327 329 330 332
311 310 310 310 303 305 303 298 302 306 307 307 307 306 302 300 294 287 283 292 302 301 306 302 301 305 302 302 299 305 306 306 307 306 303 308 304 306 303 303 303 299 296 296 296 299 301 302 305 303 309 307 305 304 305 306 306 305 301 300 299 297 297 297 295 301 295 291 297 306 307 306 296 296 305 313 317 317 317 315 316 318 321 324 327 329 331 332
309 309 310 307 307 307 299 297 299 307 307 306 309 302 297 292 291 286 287 305 294 298 298 298 303 302 302 303 302 302 302 304 304 305 301 302 299 300 298 295 298 291 291 290 291 298 297 300 301 303 313 307 304 301 302 304 303 302 299 298 295 286 290 290 293 292 290 293 298 303 307 301 301 300 309 313 315 317 318 318 318 318 321 323 326 329 331 332
308 308 308 308 309 306 306 306 305 305 306 307 305 297 294 289 283 290 292 296 292 301 298 305 301 302 301 300 299 303 304 301 303 303 304 303 300 301 300 300 300 297 288 293 291 292 294 299 300 301 302 308 306 300 298 299 299 299 298 294 292 288 288 282 284 286 288 294 296 301 307 301 298 305 308 313 316 318 319 319 319 319 321 322 325 328 331 332
307 307 304 306 306 307 308 308 307 306 305 312 299 295 291 287 287 307 295 296 296 301 302 301 303 302 301 297 300 305 299 304 302 301 303 299 300 297 299 299 300 298 297 292 292 290 287 290 298 300 295 304 304 304 301 297 296 300 299 300 295 293 288 286 286 289 292 296 297 300 301 295 300 303 310 314 318 319 320 320 319 320 322 324 326 328 330 332
307 306 304 304 305 307 308 309 308 309 306 302 295 290 285 285 290 290 294 297 299 302 300 303 300 298 298 299 300 303 303 300 303 299 299 298 297 296 297 299 299 299 297 292 293 294 293 292 293 300 301 303 303 305 306 303 301 298 299 301 295 296 295 292 290 290 291 291 292 297 297 299 305 305 311 315 313 316 319 318 319 319 321 322 324 326 328 331
305 303 306 303 306 309 307 309 308 308 304 298 290 285 286 290 288 295 295 301 302 299 299 299 299 296 293 294 300 300 304 301 302 300 297 299 300 298 300 301 300 301 297 296 294 291 294 290 298 303 303 303 303 306 305 306 295 298 300 296 298 302 301 297 299 299 295 292 290 295 298 297 301 305 307 315 313 313 318 318 319 319 320 321 323 325 327 330
302 303 301 305 306 311 309 309 309 305 303 295 287 284 289 292 296 298 306 301 301 300 297 292 293 295 293 292 294 298 300 302 301 300 294 299 296 299 299 300 303 302 302 300 295 296 292 291 297 300 301 303 306 306 306 307 304 298 296 298 301 304 300 297 291 292 290 287 289 294 295 294 297 294 306 314 312 314 316 316 318 318 319 320 323 325 326 328
301 300 304 306 309 311 310 310 308 305 299 292 286 298 294 291 297 298 300 300 300 300 295 295 294 299 293 295 293 297 299 297 295 300 295 298 293 301 301 300 302 303 303 303 299 296 298 292 293 298 302 303 305 304 303 305 307 305 303 303 301 293 295 294 293 289 287 288 287 291 294 295 296 297 304 309 311 312 314 316 316 317 319 320 322 324 325 328
300 299 298 307 312 312 311 311 308 302 295 288 287 289 297 296 300 298 301 301 300 298 294 295 294 297 298 294 296 299 299 294 297 296 295 296 294 300 302 303 301 303 304 304 301 299 300 292 292 298 300 302 303 301 297 301 303 305 303 301 304 300 294 294 295 293 293 286 288 288 291 294 300 298 305 307 312 313 314 314 316 318 319 321 322 323 324 326
299 296 294 311 313 312 312 311 306 299 290 286 286 289 295 295 297 299 300 299 296 296 294 295 298 295 297 297 298 295 299 298 296 295 297 297 298 301 301 305 302 303 304 305 302 304 297 295 289 292 299 302 297 298 299 300 296 297 299 297 300 304 299 298 299 293 294 286 285 285 288 291 296 302 307 308 312 315 316 316 317 318 320 321 322 323 324 325
300 295 295 313 313 313 311 308 299 292 290 292 294 292 295 293 298 299 300 301 299 303 298 297 297 295 297 296 296 299 297 298 299 296 298 298 299 295 302 303 304 303 304 303 302 300 297 295 294 295 298 294 294 299 303 302 302 300 300 298 297 295 296 293 292 296 295 292 285 286 289 290 299 310 310 310 314 317 318 318 318 319 320 321 322 324 324 324
297 287 294 315 314 309 301 295 297 299 295 293 290 294 294 304 298 297 298 300 298 296 301 300 300 299 298 298 299 300 299 298 299 298 299 298 300 301 302 306 306 306 302 298 299 301 300 296 296 294 295 297 300 303 304 304 305 303 303 300 300 297 296 292 288 291 293 295 296 292 290 293 301 308 311 312 315 318 319 319 319 320 320 321 322 324 325 325
294 291 301 305 307 306 298 294 300 302 296 297 303 301 301 299 298 299 297 298 296 298 297 298 299 299 300 300 300 300 301 299 300 297 299 300 301 304 306 306 307 306 305 302 303 302 319 297 295 296 297 300 303 303 303 303 303 300 301 301 300 297 298 296 293 293 295 293 293 292 291 289 299 309 312 313 314 316 318 319 319 320 321 322 322 323 323 324
296 296 300 308 310 307 298 291 292 294 298 301 302 301 304 302 301 299 298 298 296 297 296 297 300 302 300 304 302 300 305 295 300 301 299 304 301 305 306 306 307 304 304 300 301 307 298 296 295 290 290 294 298 299 299 301 302 297 295 299 301 300 301 297 297 295 296 293 294 291 288 290 300 312 311 312 314 316 317 319 319 319 319 321 322 322 323 324
297 299 297 301 311 305 295 296 295 294 298 298 298 296 298 301 303 303 302 301 303 301 300 298 301 302 302 306 303 303 304 300 297 302 302 305 306 306 305 306 307 305 308 309 320 308 300 296 296 291 288 287 287 288 289 292 295 297 298 299 301 301 299 298 296 296 291 294 295 291 289 292 300 305 310 311 312 313 316 317 318 319 319 320 321 321 322 323
296 290 297 299 300 300 301 302 296 294 294 295 295 296 298 297 301 304 304 303 305 303 302 302 302 303 303 304 301 300 301 307 302 301 302 304 307 310 310 307 305 305 316 325 321 307 299 299 298 296 294 292 293 292 296 300 296 297 297 300 299 302 302 301 296 292 293 289 294 289 295 297 302 306 306 309 310 312 312 311 315 316 316 318 319 320 321 323
298 293 296 290 298 296 295 297 295 296 292 297 289 297 296 297 299 300 305 299 303 302 302 301 300 298 299 300 302 301 304 304 306 305 305 308 308 309 312 310 304 310 324 322 319 304 298 296 297 298 298 299 298 298 299 301 298 298 298 298 299 300 300 299 298 297 296 294 289 292 294 302 302 304 306 308 310 312 314 314 315 316 316 315 316 319 328 322
293 299 298 299 291 286 291 292 296 295 297 298 295 299 295 295 297 297 302 304 303 303 298 301 300 301 302 302 304 301 304 305 304 303 309 309 307 308 308 309 307 320 328 312 317 303 298 295 298 298 298 300 301 301 301 301 300 299 299 299 299 299 298 299 299 298 299 299 295 295 296 302 303 306 308 310 311 312 312 312 315 317 316 315 316 319 321 322
302 300 299 303 294 294 295 296 297 298 297 299 298 300 296 297 297 299 298 297 299 300 301 296 299 303 302 303 304 302 304 301 300 308 308 305 307 305 302 305 308 308 308 307 310 302 301 294 297 299 298 299 299 300 302 301 301 301 299 299 300 300 299 301 300 300 301 299 301 301 299 303 306 308 309 311 314 315 314 312 311 312 314 316 317 319 321 322
293 294 294 300 298 296 296 296 297 297 294 300 298 299 299 298 296 298 298 297 294 297 302 302 303 305 305 305 306 304 306 307 307 303 309 308 304 305 304 304 304 309 309 306 309 307 303 297 305 298 296 296 298 300 300 300 300 299 300 300 300 299 299 300 301 301 303 301 301 300 301 303 307 309 312 312 310 309 308 310 311 313 314 317 318 319 321 322
298 300 300 295 293 293 297 296 295 294 293 296 296 298 297 298 297 299 297 300 297 296 301 302 304 304 305 307 307 307 309 309 308 306 308 307 302 307 306 305 308 305 307 306 307 308 303 294 304 297 293 294 298 298 299 299 299 299 299 300 299 297 296 297 298 299 300 300 299 300 299 301 307 307 309 306 307 309 309 309 310 311 314 317 318 319 321 322
300 303 303 298 291 299 292 294 293 294 291 297 297 295 294 296 298 299 294 301 305 303 304 304 305 303 309 308 308 309 309 310 310 310 309 309 312 311 310 311 309 306 304 304 307 304 300 299 298 294 293 292 297 299 298 298 299 296 297 300 300 298 299 301 305 306 304 302 298 297 299 306 308 310 307 306 307 308 308 309 310 311 314 316 317 319 321 322
Wind_Speed
22 23 22 21 22 22 21 22 22 22 21 20 20 20 19 19 19 19 19 18 18 18 19 19 19 18 18 16 14 14 13 6 5 1 2 13 12 12 12 6 9 11 9 2 1 0 3 1 1 2 2 6 3 1 2 3 3 1 0 4 2 4 2 5 8 7 8 12 10 13 13 17 12 5 7 11 8 10 7 7 5 7 8 7 12 12 15 15
23 23 23 23 23 23 23 23 22 22 22 22 22 21 21 20 20 20 19 18 18 18 18 18 19 18 17 15 14 12 11 3 7 6 16 15 9 12 14 12 8 9 10 2 6 4 2 1 1 1 2 0 0 1 2 2 1 3 1 2 6 5 5 5 5 6 12 11 13 13 14 18 14 16 9 10 10 9 9 8 10 8 10 12 13 14 15 16
24 23 23 23 23 22 23 23 22 23 23 22 21 20 21 21 21 20 19 18 18 18 18 18 18 18 17 15 12 10 8 5 3 8 15 14 21 13 14 15 12 13 11 4 4 6 7 6 1 2 1 1 2 3 1 1 2 3 4 4 5 6 3 5 8 9 12 16 14 12 10 11 14 12 9 13 13 10 13 12 8 11 13 15 15 16 15 15
24 24 24 24 23 24 25 25 24 23 22 22 22 21 21 21 21 21 20 19 19 18 18 18 17 17 17 15 11 8 2 4 4 5 3 2 6 12 15 16 13 12 6 1 4 4 3 3 2 2 0 1 2 1 2 4 2 2 3 5 6 4 4 4 9 8 13 17 16 13 8 12 13 11 10 14 12 8 8 15 21 17 16 17 17 17 16 15
25 25 25 23 24 24 25 25 25 24 22 22 22 22 20 21 22 22 20 20 19 18 17 17 16 16 16 12 10 3 3 4 4 2 2 2 1 8 13 16 14 9 8 3 3 1 2 2 2 1 1 1 0 0 3 3 3 3 7 8 7 4 4 6 8 13 13 14 15 12 15 13 11 9 12 19 16 12 13 12 14 20 19 19 19 17 15 16
25 25 24 25 25 25 25 25 23 23 22 21 20 20 20 21 21 21 21 20 19 18 17 16 15 15 15 12 6 1 1 2 1 5 1 6 8 6 13 16 14 7 6 1 1 1 4 2 4 2 1 1 1 4 2 3 3 4 5 3 6 9 6 5 9 12 13 10 14 14 11 12 12 10 14 18 17 12 12 15 17 21 22 21 19 18 17 18
25 25 25 25 25 25 25 26 26 25 24 23 22 22 22 21 21 20 21 20 19 18 18 15 13 14 12 11 1 1 2 8 4 8 10 7 4 4 10 12 10 7 6 4 4 2 2 3 3 3 3 0 5 3 4 1 2 5 9 5 11 13 10 8 11 13 11 15 13 8 11 14 12 13 10 8 2 10 12 13 15 15 17 18 18 17 18 18
25 26 26 25 26 26 26 25 24 24 24 24 24 24 22 22 21 21 20 20 19 19 17 14 11 12 9 4 0 2 1 9 13 7 4 7 5 8 11 6 8 7 7 8 7 5 4 5 4 3 1 3 2 0 1 5 2 5 7 7 8 9 8 7 11 11 11 9 8 11 12 10 16 11 10 4 8 10 13 13 14 16 16 16 17 17 16 15
26 26 25 26 26 24 26 27 25 24 25 23 23 23 24 22 20 21 21 19 19 19 16 12 11 9 6 2 1 4 8 7 6 7 4 5 5 8 10 6 5 9 4 4 5 5 5 3 2 4 3 1 1 4 0 3 8 4 7 6 7 7 10 9 11 11 12 7 12 13 8 6 8 13 4 5 9 12 15 15 15 16 17 16 16 16 15 15
26 26 25 25 25 27 28 26 25 25 24 24 24 25 24 23 21 20 21 20 19 18 15 11 9 7 3 1 1 2 8 7 3 4 6 6 5 7 2 3 8 5 5 4 4 6 5 4 4 3 1 1 1 3 4 4 7 2 6 7 11 12 11 9 14 10 8 8 14 13 10 10 10 10 1 3 10 14 16 16 15 16 17 15 14 14 13 16
26 27 26 27 27 27 26 26 26 26 27 27 26 24 23 23 22 22 21 21 18 16 12 9 6 2 2 1 1 7 7 3 0 3 8 6 7 7 9 6 6 5 5 1 5 5 3 3 1 0 1 1 0 3 4 2 6 6 7 8 8 10 10 10 12 12 12 4 13 17 10 7 1 1 12 12 11 17 18 16 16 14 14 13 14 13 12 13
26 26 27 26 27 28 29 29 29 28 26 26 25 24 24 24 24 22 22 20 17 12 8 4 6 1 1 1 6 10 2 2 1 3 4 6 3 4 5 4 4 9 8 5 3 5 5 3 3 1 2 1 2 2 3 3 4 7 14 10 5 9 8 10 14 10 12 6 12 15 11 3 2 7 11 14 15 15 17 17 16 14 13 13 13 12 11 12
27 27 27 28 29 29 26 26 27 27 27 27 26 25 25 24 23 23 21 16 10 6 6 5 3 1 0 4 11 12 8 10 9 9 6 2 2 3 3 2 3 4 3 5 2 4 6 4 2 0 2 0 0 1 2 3 2 6 6 12 8 6 6 3 4 6 13 9 16 12 5 5 2 8 12 13 15 15 15 15 14 12 12 12 12 12 11 10
28 27 28 28 28 28 29 29 29 28 28 28 26 25 24 25 23 21 16 11 8 7 5 5 0 1 0 7 6 3 5 6 5 5 7 2 3 4 2 4 3 3 1 4 2 2 2 4 4 3 0 0 3 2 5 3 5 7 4 3 10 9 7 5 3 7 12 8 12 4 8 6 3 10 13 14 16 17 16 15 13 13 12 11 11 11 11 11
28 28 30 30 30 29 27 26 27 28 28 28 28 27 27 24 21 16 12 6 3 4 6 3 1 1 0 9 6 10 14 2 4 8 4 5 4 3 5 3 4 5 3 4 1 1 4 3 1 0 2 2 1 2 2 2 3 2 9 1 1 12 4 5 3 10 14 5 3 9 3 7 10 11 13 14 15 16 16 14 13 12 12 12 11 12 12 11
25 28 31 30 30 30 29 26 26 27 28 29 27 30 26 21 16 12 4 2 3 5 1 1 2 1 2 9 2 5 0 1 4 9 5 6 5 6 3 3 1 2 2 3 4 3 3 0 1 4 1 1 2 1 2 3 3 3 6 5 7 3 9 3 7 7 13 14 4 2 6 5 4 11 14 14 16 15 14 14 13 13 13 13 11 11 11 10
24 26 29 30 30 29 30 28 27 27 26 27 31 27 19 16 11 3 4 5 4 2 3 0 1 2 1 4 4 4 1 3 4 2 2 5 8 6 3 2 1 3 4 3 1 1 1 2 1 2 0 3 4 3 1 2 4 9 1 9 7 13 9 6 7 9 5 15 7 3 10 12 10 16 16 15 17 15 14 15 14 13 12 13 11 11 11 11
24 25 29 29 31 31 30 28 27 28 27 27 27 24 17 16 3 9 4 2 1 2 2 3 1 3 10 3 1 1 1 4 5 5 4 3 10 4 3 2 0 4 3 1 0 3 1 2 0 4 1 1 3 3 5 5 8 10 4 5 4 6 19 14 13 9 7 7 12 5 7 7 9 15 16 17 16 16 16 15 15 14 13 13 12 11 12 12
28 27 28 29 29 31 28 27 27 26 26 28 25 18 7 3 2 1 2 1 1 2 2 1 1 0 5 10 11 13 6 5 9 5 3 2 2 2 1 1 3 6 2 3 3 7 1 1 2 2 5 3 5 8 9 9 9 10 10 12 11 10 9 13 13 8 17 9 6 10 10 8 13 14 14 15 16 15 15 14 13 14 13 13 13 12 11 12
29 29 29 28 28 27 28 26 26 26 26 20 11 6 0 3 3 1 1 1 3 7 11 10 6 9 12 17 16 9 7 5 5 4 1 1 5 3 4 1 0 2 5 6 2 5 5 6 7 8 7 8 6 9 10 8 8 6 1 4 12 13 12 3 7 10 12 7 9 11 11 12 16 18 17 17 15 13 13 14 13 13 14 14 13 14 13 13
25 28 28 26 29 26 28 26 25 24 26 9 8 3 3 1 3 5 11 14 11 10 11 14 15 14 12 11 8 5 6 6 4 6 8 1 1 7 3 4 2 5 4 6 6 1 5 8 10 9 9 9 8 8 3 1 3 3 2 2 6 11 13 11 9 9 10 9 4 0 9 12 17 15 15 14 15 16 16 16 15 16 15 14 15 15 14 14
27 26 26 25 27 27 26 28 25 25 16 3 2 3 2 2 1 1 2 12 5 10 12 18 13 12 13 16 20 4 3 4 15 13 9 4 3 8 2 5 4 8 1 2 0 2 7 11 10 11 7 6 4 2 4 5 3 1 3 2 1 6 1 2 3 10 10 4 5 5 10 11 13 15 13 16 19 16 16 17 17 17 15 13 14 15 15 10
27 26 25 26 26 26 28 28 26 20 3 4 6 5 3 3 3 6 3 4 17 6 14 14 12 15 16 12 9 10 9 9 10 9 2 4 3 10 4 5 5 5 3 5 9 5 5 7 10 7 5 5 4 4 5 2 0 3 2 3 5 4 5 4 4 11 9 4 7 8 7 2 3 4 10 13 15 12 14 16 14 15 17 16 16 16 15 14
28 27 26 25 26 26 27 27 24 4 2 7 6 6 4 3 5 7 1 4 11 9 10 11 14 13 13 11 5 13 11 5 5 11 5 5 7 3 3 6 5 4 8 6 8 9 6 3 4 6 5 7 7 5 6 5 4 2 4 4 2 3 5 3 7 7 3 6 6 8 5 1 3 7 8 9 9 7 9 10 10 12 14 17 16 15 15 16
28 28 28 26 25 27 28 25 3 4 10 11 5 5 2 4 3 5 1 5 2 9 5 8 6 6 10 3 5 7 6 2 10 6 4 8 5 4 6 2 4 8 5 4 4 5 8 10 3 7 7 6 6 5 6 7 5 2 4 8 7 6 7 5 10 12 5 0 4 14 1 5 5 9 12 9 8 12 9 11 13 13 14 11 10 14 14 14
29 28 28 24 25 24 29 5 2 8 12 9 4 3 6 5 4 5 1 1 6 6 3 3 2 4 3 4 8 6 6 5 8 10 6 8 9 6 2 4 3 8 6 4 6 4 6 4 5 5 6 7 7 7 5 8 6 3 6 8 10 8 6 10 15 10 7 11 10 11 13 5 1 10 11 9 11 13 6 11 15 13 13 12 13 13 13 13
28 29 25 22 21 20 11 3 3 10 6 2 2 9 9 8 5 3 1 3 5 4 2 1 1 1 2 2 7 9 3 7 4 4 6 4 8 4 7 6 1 0 4 2 0 7 4 7 6 4 5 6 5 8 5 9 7 4 4 6 6 5 5 11 17 16 9 1 2 4 2 5 3 12 10 9 10 11 11 12 14 14 14 15 14 14 14 14
30 28 23 21 18 11 5 8 10 6 9 4 9 10 12 8 7 1 1 3 3 2 1 2 2 0 1 2 12 8 5 2 5 5 8 6 6 6 7 7 6 6 3 5 13 2 7 7 8 8 5 5 7 5 5 9 6 6 3 7 5 7 9 9 12 12 7 11 4 9 0 1 4 5 6 9 9 11 16 17 16 16 16 16 16 16 16 16
28 28 26 22 20 17 10 5 2 8 4 4 10 12 8 8 1 4 3 1 3 2 1 2 5 1 1 3 6 4 3 1 3 4 3 5 8 6 9 7 7 6 5 8 8 3 2 8 7 7 6 7 4 4 7 11 5 7 4 3 2 1 4 7 9 9 2 7 8 12 9 7 4 2 6 5 10 14 18 20 19 17 18 17 16 16 17 15
31 29 26 23 16 5 0 2 10 12 6 10 10 12 9 2 1 1 2 3 1 4 1 1 1 1 1 4 3 3 6 1 3 0 3 6 4 3 3 7 4 5 5 1 5 9 4 4 7 5 7 5 4 5 6 8 10 2 4 1 1 3 1 1 2 5 4 6 8 16 16 12 8 6 12 12 14 20 18 14 13 11 13 15 16 17 16 15
28 28 23 18 6 3 4 6 12 12 8 6 10 8 2 4 3 4 3 7 3 6 1 2 2 3 3 2 3 3 4 2 1 4 2 3 4 3 2 3 2 2 3 3 4 4 5 6 1 3 7 3 6 5 5 9 7 5 2 3 2 4 5 3 3 2 6 6 8 12 16 14 10 4 7 15 20 23 21 20 20 19 20 18 16 16 16 16
28 29 29 15 10 7 6 8 2 4 1 5 6 5 1 3 4 5 6 3 1 3 3 4 2 3 5 3 3 3 6 3 3 6 7 7 6 7 6 7 7 5 7 5 7 1 7 12 2 7 3 12 4 4 5 6 2 5 3 3 5 4 1 3 1 3 5 8 8 10 11 1 10 7 13 18 17 18 19 18 20 22 21 20 17 17 14 14
28 29 31 17 9 9 14 18 3 3 8 8 3 2 1 3 5 4 5 1 3 1 0 2 6 9 4 5 2 3 4 8 3 5 9 7 9 11 6 7 9 8 5 3 4 5 5 3 7 6 6 5 7 8 6 6 4 7 7 5 5 3 4 3 3 1 3 6 5 6 12 8 2 8 6 14 22 25 23 19 18 18 21 20 18 15 13 14
29 29 16 9 7 13 10 4 8 3 3 1 2 2 3 2 6 5 10 6 7 3 6 5 14 12 8 3 5 1 4 5 6 4 8 5 8 9 8 5 7 8 4 3 8 7 6 8 15 9 5 4 7 10 8 5 7 9 5 10 7 7 5 4 3 6 8 11 2 0 9 5 6 8 12 19 22 21 16 17 13 11 17 17 16 14 14 14
32 23 10 11 7 12 16 9 5 8 6 3 3 3 6 7 2 4 3 1 3 4 7 6 6 5 10 4 3 3 5 4 4 4 8 7 8 6 9 10 5 4 4 6 3 2 11 8 6 7 5 4 8 5 6 4 3 3 4 5 7 10 7 7 7 7 6 4 1 2 6 8 11 5 4 3 7 8 6 7 7 9 12 9 8 13 14 15
20 10 9 7 4 4 10 9 9 9 9 7 4 3 10 6 4 2 2 4 1 1 3 5 2 3 3 4 1 4 5 3 1 3 2 7 8 11 9 7 10 9 7 10 4 4 2 6 4 4 6 8 7 5 5 8 8 3 6 7 8 8 9 2 2 0 3 2 4 2 2 4 7 5 3 6 3 6 10 11 12 14 13 11 12 14 15 15
11 12 8 2 5 3 9 12 11 9 5 7 5 7 5 4 5 2 2 1 1 3 2 6 4 1 2 3 2 4 5 5 3 4 4 1 3 6 6 7 9 12 9 9 3 4 7 5 4 7 9 9 9 7 7 10 7 4 5 9 2 3 3 6 7 0 1 5 5 4 9 3 4 6 2 1 2 5 12 14 16 13 12 14 15 14 15 16
11 6 7 7 8 3 9 12 12 7 5 7 8 6 3 4 2 6 3 6 2 1 1 0 3 2 4 1 4 4 5 4 6 2 3 6 4 6 10 5 7 12 13 7 8 4 3 4 3 6 9 6 5 5 8 7 10 16 12 7 6 3 5 2 3 3 2 2 2 3 3 3 8 5 1 6 8 9 10 10 9 11 14 16 15 16 15 15
4 2 7 3 7 8 8 10 7 8 6 5 5 5 3 5 2 3 1 1 1 3 3 2 1 2 1 2 2 7 4 4 3 4 4 3 6 7 14 9 7 11 14 13 10 2 2 4 5 3 8 5 4 7 13 13 4 1 5 3 1 6 5 5 7 4 5 4 2 5 1 6 7 5 11 11 12 10 8 9 14 16 18 16 15 15 15 14
6 4 4 3 6 7 9 6 2 0 4 8 6 6 2 1 3 4 7 6 3 2 3 3 4 6 5 7 4 7 3 4 4 5 4 2 7 3 10 12 6 10 13 14 9 8 5 4 6 6 3 1 8 5 12 11 8 4 5 4 2 1 3 4 1 5 6 5 5 4 3 4 7 8 10 8 10 13 17 17 15 15 16 16 15 15 15 15
4 2 5 3 6 11 7 1 1 5 3 2 1 2 2 3 1 1 7 3 1 3 6 4 2 4 3 4 6 3 3 3 1 4 4 4 6 5 6 10 9 9 10 11 13 7 4 5 9 6 3 4 6 6 7 8 10 9 10 10 8 7 4 6 9 1 2 3 4 3 7 6 9 4 10 8 9 13 15 18 17 15 15 14 14 15 15 15
4 4 3 3 10 0 3 2 2 1 0 4 5 3 2 4 3 5 5 7 6 4 4 5 8 9 8 8 8 3 3 6 6 5 5 10 6 11 5 15 13 11 10 7 10 7 8 3 5 9 7 10 10 10 5 8 12 13 12 10 10 5 6 5 5 4 1 1 5 4 2 8 8 4 5 6 7 13 15 13 13 14 16 15 15 16 15 17
2 6 7 7 10 2 3 2 3 2 3 4 3 4 3 4 3 3 4 4 5 4 3 5 6 6 8 7 6 7 6 5 5 5 3 6 11 15 12 15 18 14 13 8 13 7 5 4 6 8 6 7 8 5 5 4 3 3 6 6 8 8 8 8 7 7 7 1 1 1 2 4 1 2 3 4 5 4 4 10 14 13 13 14 15 14 14 13
4 6 8 3 2 3 2 4 3 4 3 4 5 7 4 4 3 4 4 4 3 2 3 3 5 10 7 3 6 9 2 4 3 3 9 8 7 11 17 17 19 12 11 6 11 7 5 2 8 7 4 5 8 8 5 2 3 4 4 6 7 6 8 3 6 2 4 6 9 7 7 3 4 4 0 4 6 9 11 10 10 12 10 12 13 13 13 13
6 5 6 8 3 2 2 2 2 3 2 2 2 3 4 2 3 7 7 7 5 8 6 6 8 6 3 1 10 9 5 2 7 8 6 6 6 5 9 17 19 14 15 13 16 12 9 6 7 8 11 10 9 12 10 8 6 3 2 5 7 11 8 5 5 2 5 1 4 4 3 8 8 4 0 4 6 6 6 6 5 7 11 12 11 11 11 11
3 5 5 3 4 4 1 1 5 3 2 4 3 4 3 3 2 4 7 8 9 9 10 9 9 7 7 2 7 7 6 2 2 4 9 7 4 4 3 9 12 12 18 20 12 12 4 4 8 10 12 11 10 7 6 3 3 5 5 9 9 10 14 9 6 7 9 4 6 7 8 4 2 1 4 7 8 11 9 7 10 10 9 9 11 12 12 13
3 2 3 5 6 2 1 2 4 5 3 4 1 2 2 2 4 5 5 3 3 3 5 7 5 6 5 8 6 5 5 8 6 8 7 7 3 5 12 7 6 15 14 3 7 4 4 5 8 13 15 15 12 11 7 6 6 7 8 7 9 10 10 10 10 9 7 11 7 6 5 8 11 6 7 8 9 10 11 14 14 11 11 11 9 9 10 9
1 3 2 1 1 4 7 4 8 8 4 3 4 2 3 5 3 3 4 3 7 9 3 2 6 13 12 10 6 4 1 1 5 9 5 3 4 7 11 9 4 8 3 5 10 4 4 7 7 9 15 16 15 15 11 3 4 4 7 10 12 11 10 14 11 8 12 11 12 7 8 9 10 12 13 14 15 15 13 12 17 18 10 6 7 8 11 13
2 4 2 7 2 3 2 10 11 8 9 4 3 3 3 2 4 2 2 6 6 4 3 4 7 11 12 13 8 3 3 1 5 3 2 4 3 4 5 5 2 6 3 2 8 6 3 5 5 9 13 13 12 15 15 14 11 7 6 8 12 15 15 16 12 9 16 8 11 11 13 14 10 12 13 16 15 17 14 7 4 4 10 11 10 11 13 14
4 4 4 5 4 7 7 3 4 6 6 5 1 3 3 3 5 8 6 2 6 9 6 6 8 10 10 4 7 7 7 6 4 6 3 2 8 0 3 4 5 7 6 4 0 3 10 7 10 6 6 9 11 13 14 13 13 14 12 9 11 10 13 15 11 8 9 2 1 5 11 12 8 7 16 11 3 6 7 8 13 12 9 11 12 13 14 14
4 3 5 6 6 5 4 2 3 4 4 4 0 4 7 3 5 9 13 8 12 8 5 11 11 9 6 7 9 11 11 10 6 9 12 9 7 3 0 5 2 7 9 4 2 1 5 4 1 6 7 7 9 12 14 10 9 11 13 13 11 8 6 4 5 5 7 7 4 6 5 8 9 1 3 4 6 8 11 11 10 9 10 12 14 13 11 12
5 4 5 4 3 4 5 3 4 2 3 1 4 6 4 9 11 11 7 5 3 8 8 8 12 2 0 2 1 2 1 2 7 9 11 11 10 10 6 9 5 5 4 4 1 2 4 2 2 5 8 8 9 9 12 6 3 6 11 12 11 5 5 4 2 2 2 6 10 8 10 11 8 4 6 5 7 8 7 8 9 8 9 12 13 13 12 11
Wind_Direction
348 348 346 344 342 342 341 340 340 340 337 336 334 334 333 332 332 332 335 335 331 330 328 326 322 321 320 318 319 323 329 325 318 235 174 241 209 199 184 204 170 200 188 151 232 116 282 74 163 261 175 150 223 120 225 164 186 115 116 106 157 194 168 187 157 181 156 146 162 158 156 135 144 124 114 105 105 119 123 100 97 80 97 118 123 134 140 142
347 346 345 343 342 340 339 339 339 338 338 336 335 333 331 329 329 332 331 331 332 329 327 325 321 318 318 317 318 328 331 283 284 257 230 243 192 209 204 210 174 161 139 168 198 192 197 94 115 74 88 12 261 194 154 254 144 119 142 107 207 180 229 152 159 163 134 157 158 160 161 147 147 132 152 129 140 138 116 111 118 107 109 116 129 140 144 148
345 345 344 342 340 338 338 337 337 338 338 336 333 330 329 327 327 327 327 328 329 329 326 323 318 317 316 317 315 336 347 307 265 267 262 239 237 224 214 214 201 153 164 169 205 167 170 158 161 78 24 97 294 220 120 258 124 229 125 219 239 209 222 171 140 167 149 147 148 153 168 137 138 133 154 143 149 146 145 137 130 134 138 142 143 149 151 152
344 343 343 341 338 338 338 337 337 336 336 334 332 330 328 326 323 324 324 325 327 327 326 322 315 315 315 316 326 330 6 273 279 249 261 129 146 208 215 209 199 173 168 84 150 155 135 89 80 109 95 153 291 220 134 238 118 255 138 187 224 190 139 209 146 158 145 148 150 153 149 130 148 141 149 142 129 171 171 165 155 156 152 148 152 155 155 157
344 342 341 339 337 338 338 337 336 335 334 332 331 328 325 323 323 322 321 321 322 324 324 321 315 312 314 312 325 28 348 22 267 236 238 42 273 234 205 196 186 171 159 132 122 114 141 135 107 70 110 242 307 165 241 205 185 110 211 199 186 135 162 190 157 148 151 149 140 145 143 154 136 138 148 154 154 181 184 186 156 148 150 153 156 161 159 159
344 342 340 338 337 337 336 335 333 331 328 329 327 325 323 322 320 318 317 316 319 321 323 319 312 310 312 311 313 110 35 319 303 289 92 346 343 279 190 179 172 141 142 140 153 94 114 75 111 137 76 104 235 195 255 187 148 225 270 222 189 172 167 177 144 152 141 147 143 153 155 139 156 158 166 166 170 180 165 163 155 155 158 157 156 159 165 165
343 342 340 338 337 335 334 334 333 330 329 328 327 326 324 321 318 315 314 315 313 317 321 320 310 307 313 309 211 85 184 269 326 255 358 3 18 118 158 160 145 130 131 149 175 176 131 133 110 176 123 128 271 218 257 93 177 197 243 167 186 170 166 156 150 146 147 146 153 147 144 150 143 154 180 169 1 141 142 152 154 149 145 151 157 167 167 169
341 341 339 338 337 335 332 332 331 330 329 326 326 325 323 320 317 313 312 311 311 314 317 316 308 305 335 337 313 318 5 252 254 288 304 78 93 115 119 120 140 134 148 185 167 170 122 133 160 159 121 161 222 189 282 344 213 203 246 180 168 148 143 138 139 140 134 125 123 122 137 157 158 150 147 180 145 132 131 137 140 146 150 157 159 165 167 168
340 339 339 337 335 331 331 332 330 329 328 325 321 321 322 319 312 310 308 308 307 310 311 309 302 301 333 315 124 332 267 234 230 298 112 86 117 114 129 130 157 146 156 153 177 156 135 241 167 190 232 70 260 323 17 53 313 203 189 156 131 133 131 148 127 128 124 119 115 98 106 119 114 100 65 153 143 133 131 137 145 150 155 161 165 165 167 172
339 338 336 335 333 333 333 331 329 328 326 324 321 320 319 315 310 308 308 306 304 307 304 299 286 310 354 188 67 357 262 219 300 46 63 106 114 122 204 111 151 151 146 195 136 150 153 208 167 190 150 226 159 238 91 123 237 184 134 140 137 141 132 151 129 128 121 126 122 113 117 125 136 125 118 151 142 132 136 143 151 157 162 164 165 166 171 174
339 337 335 335 333 333 331 330 328 327 327 325 321 318 315 313 311 310 307 304 302 303 297 283 285 333 231 244 182 241 250 122 288 91 100 96 117 153 194 170 166 159 176 146 170 128 207 177 189 234 109 235 309 300 353 228 247 138 133 90 111 131 135 139 124 132 116 86 119 115 116 118 96 118 157 157 153 145 144 151 156 162 164 165 167 168 175 180
338 337 336 333 333 333 332 330 329 327 323 322 319 317 314 313 312 308 304 304 302 298 290 251 262 204 287 145 208 225 269 309 357 51 111 120 157 222 321 335 204 179 173 198 143 186 199 208 20 45 197 27 343 317 277 257 19 145 121 111 114 113 122 153 142 156 124 132 128 115 91 60 149 166 155 150 149 151 150 154 161 164 167 168 169 170 179 185
337 336 335 333 333 332 329 328 327 325 323 320 319 317 313 311 310 306 304 304 302 277 238 221 181 261 313 288 226 241 271 285 295 315 310 177 235 235 237 189 214 297 225 164 169 203 193 180 150 110 240 39 207 161 290 51 98 109 110 126 108 105 127 221 125 144 123 158 137 125 121 232 260 151 150 150 151 151 152 158 163 166 169 171 173 177 183 187
336 335 334 334 332 331 330 330 328 325 321 320 319 316 313 310 310 306 302 296 268 244 225 200 267 293 161 245 270 239 233 233 291 302 264 191 191 269 243 212 180 182 146 193 236 189 147 188 166 200 207 149 268 287 13 5 88 138 106 99 141 124 181 223 174 159 126 181 153 78 134 239 186 163 155 159 155 157 162 167 167 167 171 171 175 179 187 192
335 335 334 333 333 331 329 326 326 323 322 321 319 316 313 313 310 304 297 288 266 212 192 190 98 125 10 263 268 269 254 245 249 239 197 146 166 316 256 197 205 169 178 203 221 223 205 167 134 260 253 235 173 352 6 33 53 138 112 280 221 151 204 211 274 164 140 212 216 84 71 181 169 171 166 160 164 162 164 172 171 171 173 175 175 181 188 192
334 334 334 333 332 330 328 328 325 323 322 321 319 316 312 312 305 302 315 183 127 157 128 19 229 196 341 295 266 303 259 162 254 228 208 164 161 207 214 158 120 132 145 273 227 278 301 20 211 190 199 5 165 136 37 56 107 230 156 187 173 167 164 164 228 235 171 160 205 118 166 95 187 179 170 167 166 170 167 174 176 175 178 178 178 183 188 185
334 333 333 332 330 329 329 327 324 324 322 320 320 311 314 309 313 201 85 142 146 95 187 57 83 220 288 231 308 351 318 264 248 31 131 207 180 197 89 104 191 148 173 282 301 163 253 143 268 104 351 186 154 112 110 40 137 202 319 169 192 159 166 191 201 217 245 153 190 141 138 190 164 172 172 174 171 171 174 177 179 179 180 182 180 185 186 188
334 333 332 331 330 329 327 325 323 323 324 320 318 303 306 305 279 111 54 116 137 150 260 236 212 344 272 338 316 223 276 296 345 319 217 243 196 165 146 159 181 139 117 234 96 164 197 204 161 206 47 152 119 106 144 197 170 197 185 172 216 181 172 175 171 209 176 213 150 167 146 168 157 167 175 177 176 175 180 179 180 181 181 182 182 185 185 189
334 332 331 330 328 327 326 324 324 325 324 322 305 296 307 35 120 285 123 189 88 359 5 193 140 279 245 289 292 287 302 283 293 287 270 153 193 168 226 113 112 133 173 137 278 160 238 189 31 129 219 156 190 163 174 209 161 187 172 193 168 167 204 194 193 162 166 170 148 162 164 166 162 174 176 178 181 182 185 181 180 184 182 182 183 186 185 191
333 332 330 328 327 325 324 322 323 326 328 331 339 354 45 357 3 343 217 160 200 215 233 251 205 257 285 274 273 285 290 305 320 275 259 269 111 164 223 160 105 109 129 176 183 205 139 181 208 199 185 190 201 183 191 204 170 168 138 221 182 183 197 212 185 170 168 141 185 184 159 163 172 177 181 180 179 186 185 185 185 187 185 184 185 189 189 191
331 331 329 326 328 325 325 322 324 325 327 307 299 1 41 301 357 321 328 280 250 238 236 248 230 227 231 260 260 283 346 309 187 273 275 153 150 117 236 160 197 200 197 172 164 248 120 186 228 212 185 178 198 208 174 124 144 164 182 167 254 180 194 196 184 162 178 159 199 269 164 174 178 181 181 178 178 191 188 188 190 190 190 187 186 190 192 198
332 329 328 326 327 326 322 322 323 324 326 285 345 43 249 249 243 321 354 304 267 207 232 242 242 247 244 245 257 227 219 265 297 277 268 172 218 174 270 175 180 207 208 135 152 233 193 208 219 223 186 173 201 178 172 184 206 164 165 188 144 272 28 82 168 169 179 110 197 157 174 188 184 182 182 184 190 194 189 188 190 187 191 190 192 191 192 185
331 328 327 327 326 325 323 318 322 322 349 2 347 327 240 233 346 307 249 263 283 192 228 234 247 238 243 243 248 137 200 219 243 268 249 145 151 204 147 172 189 195 186 171 189 175 230 251 225 217 148 159 224 151 167 174 204 184 120 146 210 217 172 182 216 174 181 166 186 183 168 198 185 204 203 201 196 199 196 192 192 190 189 191 195 193 189 186
330 329 327 328 327 325 321 318 313 301 348 313 244 221 255 6 334 341 25 244 297 289 191 223 218 231 228 219 208 172 183 215 176 263 216 138 174 172 165 166 182 195 215 188 193 194 204 261 190 176 158 159 209 172 151 148 218 287 187 188 157 167 231 164 187 153 112 17 101 79 45 353 194 193 217 229 223 220 212 204 202 204 202 197 194 191 187 187
328 328 328 326 329 325 321 316 0 351 308 294 218 235 260 356 350 344 52 316 271 280 201 257 206 237 232 162 127 157 205 235 203 214 195 162 169 133 213 162 137 219 209 188 178 204 241 250 114 176 186 179 196 214 185 145 206 302 229 196 200 194 194 111 130 134 155 113 200 145 28 248 231 218 211 206 209 220 209 203 210 205 208 202 195 201 199 193
327 326 327 326 327 334 313 328 16 335 324 294 248 337 338 352 1 317 121 68 288 280 12 260 116 281 124 202 160 166 126 233 202 222 174 192 169 170 143 218 156 216 210 155 197 200 202 236 155 179 196 197 191 211 200 158 187 179 266 190 204 211 187 144 147 137 158 196 212 193 178 252 276 214 213 214 215 219 212 211 216 210 207 200 199 199 197 195
325 324 325 325 328 343 359 318 354 327 333 306 26 339 332 332 339 304 44 331 325 231 191 225 62 238 180 221 147 125 141 254 215 211 200 169 177 145 167 216 180 161 159 162 139 252 149 211 206 188 185 200 194 223 204 152 142 224 234 157 195 206 197 170 162 176 197 41 85 170 103 143 196 231 208 207 213 220 224 223 218 213 209 203 201 199 196 195
323 321 323 323 322 342 247 293 333 310 236 278 345 330 318 326 302 189 64 349 279 290 261 270 216 14 238 187 151 170 191 194 154 236 194 182 152 171 193 186 177 184 197 160 214 262 178 206 202 204 191 191 211 210 163 154 157 215 211 156 188 201 215 176 174 188 181 155 183 204 220 64 244 267 180 176 206 229 230 224 218 213 210 205 200 200 197 194
320 318 321 324 317 306 267 214 263 251 239 330 325 315 317 307 268 103 119 151 264 301 25 177 315 159 325 108 181 187 192 166 187 233 163 154 185 131 206 198 174 186 223 189 219 286 306 202 204 186 180 221 217 227 154 157 183 255 213 151 173 178 212 170 195 187 155 166 199 196 191 198 281 264 152 192 208 225 228 224 221 210 207 205 202 201 198 194
318 315 318 322 318 310 350 193 231 241 294 313 302 294 301 310 51 86 35 255 10 291 269 268 13 281 76 148 218 220 195 234 178 3 141 161 229 171 220 152 162 184 229 243 194 210 235 284 179 174 204 201 197 221 162 176 208 145 78 119 78 46 6 332 92 104 90 208 219 199 193 187 219 219 181 166 208 213 221 225 225 214 214 210 205 199 196 192
315 311 312 319 292 297 311 261 250 249 247 272 278 279 323 38 125 108 194 236 325 254 311 5 337 341 50 189 207 249 212 221 249 149 144 169 186 206 80 171 100 148 229 238 238 244 256 281 229 239 152 188 175 239 180 187 205 185 205 221 312 315 12 42 351 77 160 228 244 209 199 190 206 264 237 211 207 210 208 211 209 204 206 206 203 201 196 191
314 311 308 308 264 250 207 244 217 97 64 304 337 10 68 227 359 173 209 345 6 290 59 307 334 21 335 303 295 198 193 234 181 175 168 177 166 190 215 185 166 188 223 195 241 323 233 231 249 299 208 181 176 192 236 174 176 149 129 124 180 270 19 255 86 206 209 196 236 197 184 316 249 225 202 208 220 220 217 214 207 202 204 204 201 198 192 189
315 309 307 294 265 204 231 239 306 349 353 358 18 40 88 125 223 213 262 13 251 106 159 246 332 334 346 340 284 254 254 213 183 197 175 182 161 202 211 181 186 169 182 235 192 197 261 287 261 248 295 202 185 196 210 215 179 141 169 162 173 185 197 223 250 272 311 301 265 178 171 217 281 281 228 212 215 216 213 214 216 198 199 200 198 192 188 187
313 311 307 273 221 213 226 203 227 287 343 302 83 47 56 179 245 217 221 224 248 348 355 8 334 335 342 352 283 187 251 251 175 196 181 174 176 187 229 256 180 176 159 161 196 180 199 220 233 201 241 169 189 208 183 174 160 195 143 169 180 158 157 212 188 192 208 209 233 42 130 220 181 231 208 206 219 223 216 214 212 195 201 202 194 183 185 186
314 302 280 279 243 233 226 206 145 166 168 122 85 127 187 232 271 205 237 276 278 322 298 326 313 332 306 316 241 228 188 262 200 146 189 155 196 193 193 212 226 167 138 158 237 135 208 234 262 229 209 190 205 198 179 148 246 201 169 100 162 216 141 221 198 174 208 211 13 146 190 188 196 253 298 287 241 236 208 211 183 189 200 194 170 183 190 191
315 317 292 271 253 254 179 182 162 174 160 120 121 177 217 194 214 180 243 188 196 206 301 323 271 268 257 293 316 11 289 212 248 134 258 201 192 196 197 193 198 190 172 197 184 211 160 243 240 269 225 218 214 170 206 155 213 218 122 203 213 166 157 114 23 248 88 54 245 193 308 306 313 326 319 333 162 190 169 187 191 194 188 173 184 190 193 191
326 329 336 287 260 175 151 156 165 169 167 136 147 221 208 268 207 227 291 62 275 324 356 47 300 31 315 307 288 0 340 329 255 162 251 224 273 207 207 226 187 192 199 151 263 187 156 236 259 193 229 244 214 202 205 190 164 130 186 224 181 115 109 155 213 19 97 170 250 144 195 228 145 238 306 358 146 175 173 182 195 187 174 182 193 192 192 193
317 297 260 274 261 103 139 153 149 181 131 140 202 215 195 216 258 221 310 326 338 24 20 133 269 227 264 230 308 338 345 353 302 289 242 190 253 207 194 210 197 192 196 193 195 258 143 282 296 220 210 217 206 201 265 256 196 211 225 169 167 235 251 297 117 208 137 221 247 252 215 249 181 234 208 222 185 194 193 182 170 176 182 193 194 196 195 196
280 317 324 346 20 113 136 151 171 163 110 165 212 218 248 227 264 295 286 74 254 312 309 246 193 256 271 304 290 310 306 290 288 284 294 229 224 208 196 192 210 196 193 178 204 215 127 192 285 294 187 192 179 155 224 232 250 268 65 175 129 125 173 157 199 174 145 232 110 284 100 219 207 223 202 199 196 181 159 164 187 186 188 190 195 192 191 193
338 345 276 32 99 99 136 163 292 23 107 190 192 224 189 239 270 255 242 241 272 177 232 248 208 265 268 251 252 275 288 231 238 262 220 249 238 276 206 197 199 193 188 190 200 166 247 152 230 279 280 187 215 194 215 207 212 206 199 214 197 186 225 120 64 139 181 173 183 184 262 276 251 212 187 209 179 170 169 183 186 189 190 193 191 189 193 193
308 190 274 139 135 141 145 268 276 199 198 268 177 225 251 252 234 314 321 264 261 247 250 259 262 253 273 306 273 191 277 268 209 252 250 268 205 262 227 208 195 206 179 189 199 179 190 179 214 255 263 221 243 234 200 191 185 192 190 212 179 139 132 186 246 36 108 137 199 150 242 262 265 194 197 197 190 176 186 178 185 184 185 187 190 196 191 194
337 348 296 139 161 26 359 344 270 195 225 213 220 184 234 229 261 253 244 270 240 258 229 249 241 257 258 249 254 246 256 279 268 257 228 242 226 227 232 214 208 185 156 177 202 212 168 150 193 237 221 234 231 245 220 200 194 190 180 218 186 157 130 133 191 252 16 280 118 149 159 269 242 208 205 211 177 190 187 179 179 181 185 186 191 194 197 195
325 243 273 293 296 337 149 242 265 277 234 234 267 271 254 283 258 279 298 282 288 216 251 233 237 248 235 244 257 253 242 259 257 255 250 252 252 229 228 206 205 206 174 195 194 201 139 150 168 244 271 277 271 263 270 231 189 268 248 194 159 186 175 170 167 184 175 203 125 45 206 252 282 272 253 220 198 186 164 175 181 186 184 186 188 193 197 201
285 282 306 265 266 246 182 222 258 246 257 275 261 264 243 255 259 277 234 231 191 265 221 245 240 213 255 256 284 272 27 318 217 278 303 286 266 250 230 219 203 201 182 186 186 181 190 253 148 208 252 266 282 312 299 346 142 181 198 208 195 184 175 142 107 101 172 213 175 153 224 275 275 327 230 137 150 169 182 197 187 181 184 185 190 193 195 197
285 252 232 291 302 190 174 251 276 297 279 322 329 320 322 273 228 245 245 256 239 240 263 256 250 264 238 157 275 291 293 238 293 299 251 271 279 279 272 231 212 201 203 185 184 159 185 182 152 190 207 210 221 217 218 252 220 224 223 198 193 178 161 131 186 145 185 256 133 157 237 250 277 323 207 159 162 193 205 183 182 189 182 183 190 192 192 188
328 333 296 301 356 337 20 16 73 8 337 346 333 273 232 258 270 279 292 279 254 250 233 257 263 248 246 253 279 288 298 254 253 308 306 297 304 303 317 300 228 226 210 195 168 150 176 191 174 192 197 213 218 209 242 133 107 183 219 191 205 198 180 174 118 136 196 197 180 225 180 214 278 216 206 204 179 180 191 190 191 202 206 194 186 184 187 188
320 225 318 329 323 13 1 21 32 37 336 314 301 267 277 280 281 286 213 279 251 270 275 218 229 230 222 197 216 241 222 304 316 301 271 274 282 261 302 306 256 216 233 269 163 134 82 178 210 191 207 215 201 213 209 171 194 204 191 215 200 196 188 167 167 203 160 115 222 259 205 157 219 216 216 215 211 202 196 189 195 202 200 182 179 182 183 187
316 269 36 18 287 284 351 327 6 326 266 271 245 268 264 284 312 310 303 251 317 302 256 297 232 233 218 191 149 190 215 4 314 293 286 266 321 320 330 343 16 28 285 223 163 184 147 198 219 180 216 219 212 224 221 179 192 213 213 194 197 197 184 187 198 182 143 192 202 231 179 187 214 206 202 200 193 199 197 201 202 199 179 156 164 170 180 190
274 326 316 3 316 295 266 285 305 293 305 298 248 253 252 307 314 301 322 309 317 289 284 286 280 268 222 200 175 171 126 187 279 301 271 292 320 313 328 339 318 25 29 288 194 159 180 245 196 192 214 223 223 222 235 232 244 236 227 238 209 187 191 192 200 169 177 189 196 184 176 201 198 205 201 206 204 197 199 186 99 137 187 184 175 179 188 194
6 340 329 354 293 289 285 280 282 318 311 298 291 270 353 328 305 329 332 339 311 291 294 275 285 294 305 219 175 151 172 154 198 254 276 309 314 302 265 203 266 311 4 329 321 277 187 230 171 183 206 234 225 220 228 229 230 243 242 221 229 219 199 200 189 177 190 193 104 151 177 219 249 215 203 204 129 61 79 151 186 192 177 180 182 188 193 196
313 283 297 315 309 268 260 300 330 316 309 296 149 340 341 327 337 337 298 273 248 251 294 296 287 291 272 223 199 158 167 161 192 232 249 256 252 230 149 289 13 325 328 324 325 340 192 274 155 136 186 245 225 211 224 223 222 234 247 246 227 185 200 209 195 191 160 195 142 113 177 247 256 180 80 100 149 156 171 181 188 191 186 182 186 189 190 194
323 290 297 283 272 290 327 301 295 311 271 263 10 348 348 304 305 306 320 291 330 303 297 304 297 225 17 236 204 63 344 190 199 233 244 245 244 259 243 256 275 272 291 280 250 249 181 158 168 159 184 228 230 196 203 184 195 258 248 241 232 194 170 154 103 128 224 143 127 167 215 217 211 154 142 175 169 187 183 184 185 191 187 182 181 184 190 190